Hourly Data Report for January 25, 2019

TORONTO CITY
ONTARIO
Current Station Operator: ECCC - MSC

43°40'00.000" N
79°24'00.000" W
112.50 m
6158355
71508
XTO

Download Data

Hourly Data (January 2019)
Hourly Data Report for January 25, 2019
TIME
LST
Temp Definition
°C
Dew Point Definition
°C
Rel Hum Definition
%
Precip. Amount Definition
mm

Wind Dir Definition
10's deg

Wind Spd Definition
km/h
Visibility Definition
km
Stn Press Definition
kPa
Hmdx Definition


Wind Chill Definition


Weather Definition


00:00 -2.3 -5.8 77 0.0 LegendMM LegendMM   99.28     LegendNANA
01:00 -2.4 -5.2 81 0.0 LegendMM LegendMM   99.27     LegendNANA
02:00 -2.3 -7.2 69 0.0 LegendMM LegendMM   99.26     LegendNANA
03:00 -2.6 -8.0 66 0.2 LegendMM LegendMM   99.28     LegendNANA
04:00 -2.9 -8.7 64 0.0 LegendMM LegendMM   99.31     LegendNANA
05:00 -3.7 -8.7 68 0.0 LegendMM LegendMM   99.35     LegendNANA
06:00 -4.0 -8.8 69 0.0 LegendMM LegendMM   99.38     LegendNANA
07:00 -4.0 -9.3 67 0.0 LegendMM LegendMM   99.44     LegendNANA
08:00 -4.4 -10.6 62 0.0 LegendMM LegendMM   99.54     LegendNANA
09:00 -5.0 -11.8 59 0.0 LegendMM LegendMM   99.68     LegendNANA
10:00 -5.3 -12.7 56 0.0 LegendMM LegendMM   99.79     LegendNANA
11:00 -4.9 -13.9 49 0.0 LegendMM LegendMM   99.89     LegendNANA
12:00 -5.1 -12.9 54 0.0 LegendMM LegendMM   99.98     LegendNANA
13:00 -6.7 -9.2 83 0.2 LegendMM LegendMM   100.07     LegendNANA
14:00 -6.6 -10.8 72 0.0 LegendMM LegendMM   100.10     LegendNANA
15:00 -6.0 -15.0 49 0.0 LegendMM LegendMM   100.14     LegendNANA
16:00 -6.3 -14.3 53 0.0 LegendMM LegendMM   100.25     LegendNANA
17:00 -7.7 -14.7 57 0.0 LegendMM LegendMM   100.30     LegendNANA
18:00 -7.9 -15.2 56 0.0 LegendMM LegendMM   100.35     LegendNANA
19:00 -8.2 -15.4 56 0.0 LegendMM LegendMM   100.40     LegendNANA
20:00 -8.5 -14.5 62 0.0 LegendMM LegendMM   100.43     LegendNANA
21:00 -8.9 -15.6 58 0.0 LegendMM LegendMM   100.46     LegendNANA
22:00 -9.3 -16.1 58 0.0 LegendMM LegendMM   100.46     LegendNANA
23:00 -9.6 -16.4 58 0.0 LegendMM LegendMM   100.45     LegendNANA

Notes on Data Quality.

Legend

  • E = Estimated
  • M = Missing
  • NA = Not Available*
  • [empty] = Indicates an unobserved value
Date modified: